RYR1PX EDJA-EGSS

Flight info

Callsign RYR1PX
Flight time 1h 28m
Altitude 38000
Route LUPOL5A LUPOL Z79 SUDEN Y710 ETAGO DCT SUNEG L608 ULNOK DCT ADENU DCT LIRSU DCT SPI DCT KOZUF DCT IMPOH DCT SASKI L608 SUMUM Y6 TOSVA TOSVA1A
Aircraft B738/M-SDE2E3FGHIRWXY/LB1

Departure

Time 2026-05-05 04:03
Airport Memmingen Allgau Airport (EDJA)

Arrival

Time 2026-05-05 05:31
Airport London Stansted Airport (EGSS)
Time Latitude Longitude Altitude Speed Heading
2026-05-05 03:50 47.98702 10.22805 2072 ft 4 kts 261°
2026-05-05 03:50 47.98706 10.22843 2076 ft 2 kts 261°
2026-05-05 03:50 47.98707 10.22846 2076 ft 0 kts 261°
2026-05-05 03:55 47.98705 10.22829 2073 ft 3 kts 261°
2026-05-05 03:55 47.98701 10.22797 2076 ft 3 kts 261°
2026-05-05 03:56 47.98698 10.22767 2073 ft 3 kts 261°
2026-05-05 03:56 47.98692 10.22738 2077 ft 3 kts 236°
2026-05-05 03:56 47.98675 10.22721 2078 ft 3 kts 205°
2026-05-05 03:56 47.98656 10.22715 2076 ft 3 kts 187°
2026-05-05 03:57 47.98637 10.22714 2079 ft 3 kts 179°
2026-05-05 03:57 47.98618 10.22714 2079 ft 3 kts 179°
2026-05-05 03:57 47.98600 10.22715 2080 ft 3 kts 179°
2026-05-05 03:57 47.98583 10.22715 2080 ft 2 kts 179°
2026-05-05 03:58 47.98566 10.22716 2081 ft 2 kts 179°
2026-05-05 03:58 47.98550 10.22715 2081 ft 2 kts 183°
2026-05-05 03:58 47.98534 10.22711 2081 ft 2 kts 192°
2026-05-05 03:58 47.98520 10.22704 2082 ft 2 kts 201°
2026-05-05 03:59 47.98507 10.22694 2082 ft 2 kts 210°
2026-05-05 03:59 47.98496 10.22682 2082 ft 2 kts 218°
2026-05-05 03:59 47.98487 10.22668 2083 ft 2 kts 232°
2026-05-05 03:59 47.98480 10.22652 2083 ft 2 kts 235°
2026-05-05 04:00 47.98473 10.22637 2083 ft 2 kts 236°
2026-05-05 04:00 47.98467 10.22622 2084 ft 2 kts 239°
2026-05-05 04:00 47.98461 10.22608 2084 ft 2 kts 239°
2026-05-05 04:00 47.98456 10.22595 2084 ft 1 kts 239°
2026-05-05 04:01 47.98451 10.22582 2084 ft 1 kts 239°
2026-05-05 04:01 47.98446 10.22571 2085 ft 1 kts 239°
2026-05-05 04:01 47.98442 10.22560 2085 ft 1 kts 235°
2026-05-05 04:01 47.98436 10.22550 2085 ft 1 kts 230°
2026-05-05 04:02 47.98421 10.22537 2086 ft 4 kts 195°
2026-05-05 04:02 47.98383 10.22555 2087 ft 8 kts 148°
2026-05-05 04:02 47.98353 10.22616 2086 ft 9 kts 78°
2026-05-05 04:02 47.98402 10.22742 2084 ft 29 kts 59°
2026-05-05 04:03 47.98640 10.23343 2079 ft 104 kts 59°
2026-05-05 04:03 47.99124 10.24558 2068 ft 166 kts 59°
2026-05-05 04:03 47.99770 10.26170 2602 ft 181 kts 60°
2026-05-05 04:03 48.00389 10.27769 3576 ft 182 kts 59°
2026-05-05 04:04 48.01034 10.29510 4023 ft 205 kts 59°
2026-05-05 04:04 48.01808 10.31378 4536 ft 216 kts 54°
2026-05-05 04:04 48.02668 10.33319 5081 ft 231 kts 59°
2026-05-05 04:04 48.03490 10.35446 5743 ft 240 kts 58°
2026-05-05 04:05 48.04693 10.37134 6619 ft 241 kts 24°
2026-05-05 04:05 48.06364 10.37481 6927 ft 249 kts 349°
2026-05-05 04:05 48.07951 10.36485 6875 ft 248 kts 319°
2026-05-05 04:05 48.09126 10.34676 6958 ft 241 kts 311°
2026-05-05 04:06 48.10254 10.32823 6905 ft 240 kts 307°
2026-05-05 04:06 48.10998 10.30629 6915 ft 234 kts 286°
2026-05-05 04:06 48.11530 10.28353 6997 ft 232 kts 290°
2026-05-05 04:06 48.12153 10.26121 6983 ft 241 kts 291°
2026-05-05 04:07 48.12836 10.23748 7210 ft 256 kts 290°
2026-05-05 04:07 48.13528 10.21269 8089 ft 255 kts 289°
2026-05-05 04:07 48.14177 10.18882 9233 ft 243 kts 289°
2026-05-05 04:07 48.14831 10.16491 9873 ft 256 kts 289°
2026-05-05 04:08 48.15537 10.13904 10138 ft 281 kts 289°
2026-05-05 04:08 48.16310 10.11070 10351 ft 307 kts 289°
2026-05-05 04:08 48.17157 10.07989 10686 ft 329 kts 290°
2026-05-05 04:08 48.18030 10.04820 11339 ft 336 kts 290°
2026-05-05 04:09 48.18929 10.01564 12157 ft 340 kts 290°
2026-05-05 04:09 48.19832 9.98281 13012 ft 342 kts 289°
2026-05-05 04:09 48.20742 9.94965 13811 ft 346 kts 289°
2026-05-05 04:09 48.21663 9.91609 14489 ft 351 kts 290°
2026-05-05 04:10 48.22772 9.88312 15188 ft 357 kts 297°
2026-05-05 04:10 48.24096 9.85148 15972 ft 359 kts 300°
2026-05-05 04:10 48.25470 9.82004 16694 ft 362 kts 300°
2026-05-05 04:10 48.26836 9.78854 17353 ft 367 kts 300°
2026-05-05 04:11 48.28215 9.75610 18033 ft 371 kts 299°
2026-05-05 04:11 48.29594 9.72321 18649 ft 374 kts 298°
2026-05-05 04:11 48.30975 9.68995 19257 ft 377 kts 298°
2026-05-05 04:11 48.32361 9.65641 19874 ft 379 kts 298°
2026-05-05 04:12 48.33753 9.62264 20485 ft 382 kts 298°
2026-05-05 04:12 48.35152 9.58850 21069 ft 385 kts 298°
2026-05-05 04:12 48.36555 9.55406 21652 ft 387 kts 297°
2026-05-05 04:12 48.37928 9.51935 22357 ft 392 kts 297°
2026-05-05 04:13 48.39714 9.48804 23026 ft 403 kts 319°
2026-05-05 04:13 48.42212 9.46791 23565 ft 415 kts 338°
2026-05-05 04:13 48.45084 9.45996 23962 ft 426 kts 356°
2026-05-05 04:13 48.48066 9.46047 24420 ft 430 kts 359°
2026-05-05 04:14 48.51073 9.46152 24851 ft 434 kts 358°
2026-05-05 04:14 48.54094 9.46205 25275 ft 436 kts 357°
2026-05-05 04:14 48.57140 9.46191 25691 ft 439 kts 356°
2026-05-05 04:14 48.60204 9.46145 26150 ft 441 kts 356°
2026-05-05 04:15 48.63291 9.46098 26583 ft 444 kts 356°
2026-05-05 04:15 48.66364 9.45949 27320 ft 445 kts 353°
2026-05-05 04:15 48.69453 9.45742 27894 ft 445 kts 352°
2026-05-05 04:15 48.72485 9.44906 28196 ft 443 kts 338°
2026-05-05 04:16 48.75266 9.42980 28514 ft 438 kts 323°
2026-05-05 04:16 48.77670 9.40186 28902 ft 435 kts 315°
2026-05-05 04:16 48.79983 9.37209 29291 ft 437 kts 315°
2026-05-05 04:16 48.82301 9.34216 29658 ft 439 kts 315°
2026-05-05 04:17 48.84640 9.31213 29985 ft 442 kts 315°
2026-05-05 04:17 48.86998 9.28207 30274 ft 444 kts 315°
2026-05-05 04:17 48.89341 9.25218 30606 ft 447 kts 315°
2026-05-05 04:17 48.91724 9.22204 31065 ft 445 kts 315°
2026-05-05 04:18 48.94111 9.19196 31398 ft 446 kts 315°
2026-05-05 04:18 48.96493 9.16201 31906 ft 442 kts 315°
2026-05-05 04:18 48.98851 9.13227 32403 ft 439 kts 315°
2026-05-05 04:18 49.01193 9.10264 32802 ft 437 kts 315°
2026-05-05 04:19 49.03530 9.07298 33148 ft 437 kts 315°
2026-05-05 04:19 49.05861 9.04333 33528 ft 436 kts 315°
2026-05-05 04:19 49.08154 9.01415 33924 ft 433 kts 315°
2026-05-05 04:19 49.10468 8.98468 34207 ft 433 kts 315°
2026-05-05 04:20 49.12784 8.95507 34422 ft 436 kts 315°
2026-05-05 04:20 49.15111 8.92533 34615 ft 437 kts 314°
2026-05-05 04:20 49.17444 8.89553 34863 ft 438 kts 316°
2026-05-05 04:20 49.19967 8.86888 35127 ft 445 kts 325°
2026-05-05 04:21 49.22775 8.84827 35387 ft 452 kts 335°
2026-05-05 04:21 49.25770 8.83302 35611 ft 455 kts 337°
2026-05-05 04:21 49.28762 8.81894 35800 ft 457 kts 338°
2026-05-05 04:21 49.31808 8.80486 35997 ft 458 kts 338°
2026-05-05 04:22 49.34852 8.79062 36245 ft 457 kts 338°
2026-05-05 04:22 49.37888 8.77614 36497 ft 457 kts 338°
2026-05-05 04:22 49.40923 8.76144 36668 ft 458 kts 338°
2026-05-05 04:22 49.43959 8.74658 36901 ft 458 kts 338°
2026-05-05 04:23 49.46992 8.73165 37091 ft 458 kts 338°
2026-05-05 04:23 49.50028 8.71667 37284 ft 459 kts 338°
2026-05-05 04:23 49.53070 8.70170 37488 ft 459 kts 338°
2026-05-05 04:23 49.56113 8.68670 37697 ft 459 kts 338°
2026-05-05 04:24 49.59112 8.67191 37844 ft 458 kts 338°
2026-05-05 04:24 49.62152 8.65686 37889 ft 460 kts 338°
2026-05-05 04:25 49.71147 8.60663 37888 ft 452 kts 326°
2026-05-05 04:25 49.76079 8.54933 37908 ft 439 kts 310°
2026-05-05 04:26 49.80428 8.48414 37904 ft 438 kts 311°
2026-05-05 04:26 49.84287 8.41330 37916 ft 424 kts 293°
2026-05-05 04:27 49.86127 8.32850 37916 ft 412 kts 276°
2026-05-05 04:27 49.87150 8.24095 37911 ft 414 kts 276°
2026-05-05 04:28 49.88177 8.15290 37919 ft 416 kts 276°
2026-05-05 04:28 49.89227 8.06496 37910 ft 419 kts 276°
2026-05-05 04:29 49.90299 7.97598 37913 ft 421 kts 276°
2026-05-05 04:29 49.91373 7.88653 37904 ft 423 kts 276°
2026-05-05 04:30 49.92437 7.79672 37921 ft 423 kts 276°
2026-05-05 04:30 49.93500 7.70683 37915 ft 423 kts 276°
2026-05-05 04:31 49.94546 7.61750 37919 ft 423 kts 276°
2026-05-05 04:31 49.95593 7.52752 37903 ft 423 kts 277°
2026-05-05 04:32 49.96630 7.43774 37905 ft 422 kts 276°
2026-05-05 04:32 49.97658 7.34811 37915 ft 421 kts 276°
2026-05-05 04:33 49.98678 7.25858 37922 ft 421 kts 277°
2026-05-05 04:33 49.99684 7.16970 37914 ft 420 kts 276°
2026-05-05 04:34 50.00689 7.08021 37908 ft 420 kts 276°
2026-05-05 04:34 50.01686 6.99090 37908 ft 419 kts 276°
2026-05-05 04:35 50.02975 6.90245 37880 ft 423 kts 287°
2026-05-05 04:35 50.05390 6.81996 37730 ft 417 kts 292°
2026-05-05 04:36 50.08205 6.74321 37848 ft 405 kts 296°
2026-05-05 04:36 50.11061 6.66862 37864 ft 403 kts 296°
2026-05-05 04:37 50.13843 6.59177 37891 ft 411 kts 295°
2026-05-05 04:37 50.16601 6.51281 37897 ft 420 kts 295°
2026-05-05 04:38 50.19465 6.43243 37875 ft 429 kts 297°
2026-05-05 04:38 50.22629 6.35326 37889 ft 436 kts 298°
2026-05-05 04:39 50.25899 6.27272 37884 ft 441 kts 298°
2026-05-05 04:39 50.29147 6.19186 37878 ft 436 kts 298°
2026-05-05 04:40 50.32320 6.11217 37881 ft 429 kts 298°
2026-05-05 04:40 50.35442 6.03331 37899 ft 429 kts 298°
2026-05-05 04:41 50.38584 5.95368 37902 ft 430 kts 298°
2026-05-05 04:41 50.41725 5.87385 37903 ft 430 kts 298°
2026-05-05 04:42 50.44864 5.79398 37899 ft 430 kts 298°
2026-05-05 04:42 50.47981 5.71427 37913 ft 432 kts 298°
2026-05-05 04:43 50.51128 5.63362 37907 ft 434 kts 298°
2026-05-05 04:43 50.54467 5.55428 37916 ft 437 kts 302°
2026-05-05 04:44 50.57971 5.47596 37917 ft 439 kts 302°
2026-05-05 04:44 50.61481 5.39717 37907 ft 440 kts 302°
2026-05-05 04:45 50.64939 5.31862 37907 ft 440 kts 301°
2026-05-05 04:45 50.68409 5.23920 37912 ft 439 kts 301°
2026-05-05 04:46 50.71864 5.15972 37913 ft 439 kts 301°
2026-05-05 04:46 50.75313 5.08025 37917 ft 439 kts 301°
2026-05-05 04:47 50.78734 5.00125 37927 ft 438 kts 301°
2026-05-05 04:47 50.82162 4.92183 37915 ft 436 kts 301°
2026-05-05 04:48 50.85572 4.84257 37921 ft 435 kts 301°
2026-05-05 04:48 50.88962 4.76350 37924 ft 434 kts 301°
2026-05-05 04:49 50.92337 4.68452 37930 ft 432 kts 300°
2026-05-05 04:49 50.95680 4.60608 37914 ft 432 kts 301°
2026-05-05 04:50 50.99044 4.52692 37916 ft 433 kts 300°
2026-05-05 04:50 51.02409 4.44751 37919 ft 434 kts 300°
2026-05-05 04:51 51.05774 4.36783 37943 ft 435 kts 300°
2026-05-05 04:51 51.09125 4.28821 37946 ft 436 kts 300°
2026-05-05 04:52 51.12498 4.20785 37938 ft 438 kts 300°
2026-05-05 04:52 51.15874 4.12717 37926 ft 438 kts 300°
2026-05-05 04:53 51.18679 4.05996 37936 ft 438 kts 300°
2026-05-05 04:53 51.22597 3.96581 37938 ft 439 kts 300°
2026-05-05 04:54 51.25966 3.88464 37946 ft 439 kts 300°
2026-05-05 04:54 51.28758 3.81705 37948 ft 439 kts 300°
2026-05-05 04:54 51.30446 3.77605 37508 ft 445 kts 300°
2026-05-05 04:55 51.32139 3.73499 37188 ft 438 kts 300°
2026-05-05 04:55 51.33803 3.69455 36766 ft 434 kts 299°
2026-05-05 04:55 51.35264 3.65298 36382 ft 425 kts 290°
2026-05-05 04:55 51.36266 3.60910 36053 ft 415 kts 282°
2026-05-05 04:56 51.37274 3.55059 35526 ft 410 kts 282°
2026-05-05 04:56 51.37774 3.52093 35278 ft 408 kts 282°
2026-05-05 04:56 51.38501 3.47793 34911 ft 404 kts 282°
2026-05-05 04:56 51.39239 3.43476 34541 ft 401 kts 282°
2026-05-05 04:57 51.39978 3.39189 34174 ft 398 kts 282°
2026-05-05 04:57 51.40715 3.34935 33797 ft 395 kts 282°
2026-05-05 04:57 51.41447 3.30716 33376 ft 392 kts 282°
2026-05-05 04:57 51.42172 3.26530 33005 ft 388 kts 282°
2026-05-05 04:58 51.42888 3.22391 32640 ft 384 kts 282°
2026-05-05 04:58 51.43597 3.18291 32301 ft 380 kts 282°
2026-05-05 04:58 51.44297 3.14227 31935 ft 377 kts 281°
2026-05-05 04:58 51.44990 3.10200 31605 ft 373 kts 281°
2026-05-05 04:59 51.45649 3.06269 31325 ft 368 kts 281°
2026-05-05 04:59 51.46302 3.02315 30970 ft 366 kts 281°
2026-05-05 04:59 51.46946 2.98388 30641 ft 363 kts 280°
2026-05-05 04:59 51.47585 2.94489 30303 ft 360 kts 280°
2026-05-05 05:00 51.48219 2.90616 29964 ft 358 kts 280°
2026-05-05 05:00 51.48848 2.86770 29598 ft 355 kts 281°
2026-05-05 05:00 51.49472 2.82955 29252 ft 352 kts 281°
2026-05-05 05:00 51.50089 2.79171 28900 ft 349 kts 281°
2026-05-05 05:01 51.50700 2.75417 28563 ft 346 kts 281°
2026-05-05 05:01 51.51298 2.71737 28214 ft 344 kts 281°
2026-05-05 05:01 51.51899 2.68028 27879 ft 342 kts 281°
2026-05-05 05:01 51.52494 2.64338 27554 ft 340 kts 281°
2026-05-05 05:02 51.53087 2.60670 27209 ft 339 kts 281°
2026-05-05 05:02 51.53676 2.57015 26873 ft 337 kts 281°
2026-05-05 05:02 51.54259 2.53376 26546 ft 336 kts 281°
2026-05-05 05:02 51.54852 2.49753 26217 ft 335 kts 283°
2026-05-05 05:03 51.55602 2.46213 25910 ft 334 kts 287°
2026-05-05 05:03 51.56404 2.42775 25585 ft 333 kts 287°
2026-05-05 05:03 51.57217 2.39297 25270 ft 332 kts 287°
2026-05-05 05:03 51.58017 2.35816 24942 ft 332 kts 287°
2026-05-05 05:04 51.58813 2.32338 24617 ft 331 kts 287°
2026-05-05 05:04 51.59606 2.28868 24300 ft 331 kts 287°
2026-05-05 05:04 51.60397 2.25391 23977 ft 331 kts 287°
2026-05-05 05:04 51.61188 2.21906 23655 ft 331 kts 287°
2026-05-05 05:05 51.61976 2.18425 23288 ft 331 kts 287°
2026-05-05 05:05 51.62755 2.14988 22929 ft 331 kts 288°
2026-05-05 05:05 51.63868 2.11738 22561 ft 335 kts 307°
2026-05-05 05:05 51.65559 2.09168 22273 ft 337 kts 324°
2026-05-05 05:06 51.67607 2.07314 21957 ft 337 kts 330°
2026-05-05 05:06 51.69701 2.05587 21565 ft 340 kts 331°
2026-05-05 05:06 51.71808 2.03845 21191 ft 341 kts 330°
2026-05-05 05:06 51.73922 2.02079 20820 ft 343 kts 330°
2026-05-05 05:07 51.76017 2.00314 20457 ft 345 kts 330°
2026-05-05 05:07 51.78143 1.98509 20070 ft 345 kts 330°
2026-05-05 05:07 51.80264 1.96701 19697 ft 344 kts 330°
2026-05-05 05:07 51.82383 1.94890 19314 ft 344 kts 330°
2026-05-05 05:08 51.84490 1.93089 18945 ft 343 kts 330°
2026-05-05 05:08 51.86591 1.91288 18571 ft 341 kts 331°
2026-05-05 05:08 51.88676 1.89447 18180 ft 340 kts 325°
2026-05-05 05:08 51.90359 1.86819 17804 ft 335 kts 303°
2026-05-05 05:09 51.91542 1.83609 17515 ft 330 kts 298°
2026-05-05 05:09 51.92613 1.80340 17213 ft 326 kts 297°
2026-05-05 05:09 51.93635 1.77143 16926 ft 322 kts 296°
2026-05-05 05:09 51.94663 1.73930 16645 ft 319 kts 297°
2026-05-05 05:10 51.95685 1.70765 16368 ft 315 kts 297°
2026-05-05 05:10 51.96701 1.67637 16090 ft 312 kts 297°
2026-05-05 05:10 51.97710 1.64540 15822 ft 308 kts 297°
2026-05-05 05:10 51.98708 1.61484 15567 ft 306 kts 297°
2026-05-05 05:11 51.99698 1.58453 15300 ft 303 kts 297°
2026-05-05 05:11 52.00684 1.55440 15036 ft 301 kts 297°
2026-05-05 05:11 52.01659 1.52456 14776 ft 298 kts 297°
2026-05-05 05:11 52.02614 1.49531 14533 ft 297 kts 297°
2026-05-05 05:12 52.03578 1.46574 14257 ft 295 kts 297°
2026-05-05 05:12 52.04536 1.43631 14005 ft 294 kts 297°
2026-05-05 05:12 52.05489 1.40701 13731 ft 293 kts 297°
2026-05-05 05:12 52.06438 1.37782 13456 ft 293 kts 297°
2026-05-05 05:13 52.07389 1.34861 13191 ft 291 kts 297°
2026-05-05 05:13 52.08331 1.31955 12929 ft 290 kts 297°
2026-05-05 05:13 52.09267 1.29063 12668 ft 288 kts 297°
2026-05-05 05:13 52.10186 1.26221 12418 ft 287 kts 297°
2026-05-05 05:14 52.11110 1.23356 12159 ft 285 kts 295°
2026-05-05 05:14 52.11583 1.20267 11906 ft 283 kts 269°
2026-05-05 05:14 52.11326 1.17130 11741 ft 279 kts 258°
2026-05-05 05:14 52.10844 1.14087 11534 ft 277 kts 255°
2026-05-05 05:15 52.10314 1.11075 11346 ft 277 kts 255°
2026-05-05 05:15 52.09782 1.08054 11145 ft 278 kts 255°
2026-05-05 05:15 52.09253 1.05018 10951 ft 280 kts 255°
2026-05-05 05:15 52.08728 1.01972 10753 ft 281 kts 255°
2026-05-05 05:16 52.08206 0.98907 10556 ft 282 kts 255°
2026-05-05 05:16 52.07692 0.95869 10356 ft 283 kts 255°
2026-05-05 05:16 52.07172 0.92797 10174 ft 280 kts 255°
2026-05-05 05:16 52.06660 0.89764 9973 ft 277 kts 255°
2026-05-05 05:17 52.06156 0.86772 9757 ft 272 kts 255°
2026-05-05 05:17 52.05656 0.83805 9559 ft 271 kts 256°
2026-05-05 05:17 52.05158 0.80855 9359 ft 271 kts 256°
2026-05-05 05:17 52.04661 0.77913 9164 ft 270 kts 256°
2026-05-05 05:18 52.04164 0.74975 8967 ft 269 kts 256°
2026-05-05 05:18 52.03668 0.72046 8765 ft 269 kts 256°
2026-05-05 05:18 52.03182 0.69179 8587 ft 265 kts 255°
2026-05-05 05:18 52.02695 0.66321 8389 ft 260 kts 255°
2026-05-05 05:19 52.02217 0.63515 8205 ft 256 kts 255°
2026-05-05 05:19 52.01744 0.60757 8018 ft 251 kts 256°
2026-05-05 05:19 52.01417 0.57967 7638 ft 254 kts 266°
2026-05-05 05:19 52.01301 0.55089 7239 ft 258 kts 267°
2026-05-05 05:20 52.01172 0.52149 6821 ft 264 kts 266°
2026-05-05 05:20 52.01025 0.49153 6375 ft 269 kts 266°
2026-05-05 05:20 52.00873 0.46127 6068 ft 268 kts 266°
2026-05-05 05:20 52.00749 0.43204 6005 ft 258 kts 267°
2026-05-05 05:21 52.00660 0.40347 5990 ft 247 kts 267°
2026-05-05 05:21 52.00546 0.37629 5981 ft 238 kts 267°
2026-05-05 05:21 52.00431 0.34943 5986 ft 238 kts 267°
2026-05-05 05:21 52.00324 0.32258 6003 ft 239 kts 267°
2026-05-05 05:22 52.00222 0.29549 6010 ft 241 kts 266°
2026-05-05 05:22 51.99729 0.26970 5989 ft 243 kts 235°
2026-05-05 05:22 51.98595 0.24941 5997 ft 244 kts 224°
2026-05-05 05:22 51.97359 0.23066 6000 ft 243 kts 223°
2026-05-05 05:23 51.96106 0.21215 5990 ft 244 kts 223°
2026-05-05 05:23 51.94881 0.19388 5987 ft 240 kts 223°
2026-05-05 05:23 51.93688 0.17593 5971 ft 229 kts 223°
2026-05-05 05:23 51.92537 0.15869 5979 ft 223 kts 223°
2026-05-05 05:24 51.91404 0.14166 5988 ft 222 kts 223°
2026-05-05 05:24 51.90264 0.12457 6000 ft 224 kts 224°
2026-05-05 05:24 51.89115 0.10704 5831 ft 228 kts 223°
2026-05-05 05:24 51.87924 0.08915 5324 ft 239 kts 223°
2026-05-05 05:25 51.86700 0.07073 5001 ft 242 kts 223°
2026-05-05 05:25 51.85473 0.05224 4729 ft 241 kts 223°
2026-05-05 05:25 51.84269 0.03385 4487 ft 241 kts 223°
2026-05-05 05:25 51.83052 0.01532 4225 ft 239 kts 223°
2026-05-05 05:26 51.81842 -0.00312 3986 ft 239 kts 224°
2026-05-05 05:26 51.80614 -0.02092 3674 ft 238 kts 212°
2026-05-05 05:26 51.78995 -0.02790 3390 ft 244 kts 176°
2026-05-05 05:26 51.77424 -0.02014 3318 ft 232 kts 145°
2026-05-05 05:27 51.76342 -0.00241 3162 ft 219 kts 115°
2026-05-05 05:27 51.75928 0.02040 2952 ft 209 kts 85°
2026-05-05 05:27 51.76974 0.06060 2594 ft 190 kts 43°
2026-05-05 05:28 51.77881 0.07504 2533 ft 177 kts 42°
2026-05-05 05:28 51.78732 0.08828 2483 ft 162 kts 41°
2026-05-05 05:28 51.79560 0.10029 2489 ft 158 kts 40°
2026-05-05 05:28 51.80367 0.11242 2371 ft 157 kts 40°
2026-05-05 05:29 51.81157 0.12446 2147 ft 153 kts 43°
2026-05-05 05:29 51.81900 0.13590 1973 ft 144 kts 39°
2026-05-05 05:29 51.82636 0.14658 1760 ft 142 kts 40°
2026-05-05 05:29 51.83357 0.15738 1560 ft 141 kts 41°
2026-05-05 05:30 51.84079 0.16827 1372 ft 143 kts 41°
2026-05-05 05:30 51.84811 0.17929 1159 ft 145 kts 42°
2026-05-05 05:30 51.85556 0.19050 957 ft 147 kts 42°
2026-05-05 05:30 51.86310 0.20187 778 ft 149 kts 43°
2026-05-05 05:31 51.87082 0.21357 539 ft 155 kts 42°
2026-05-05 05:31 51.87863 0.22522 347 ft 148 kts 42°
2026-05-05 05:31 51.88537 0.23533 334 ft 106 kts 43°
2026-05-05 05:31 51.88903 0.24086 335 ft 39 kts 41°
2026-05-05 05:32 51.89048 0.24350 338 ft 32 kts 59°
2026-05-05 05:32 51.89134 0.24672 338 ft 28 kts 68°
2026-05-05 05:32 51.89160 0.24887 347 ft 15 kts 114°
2026-05-05 05:32 51.89196 0.25008 342 ft 13 kts 41°
2026-05-05 05:33 51.89241 0.25128 345 ft 13 kts 80°
2026-05-05 05:33 51.89199 0.25241 347 ft 12 kts 137°
2026-05-05 05:33 51.89141 0.25341 338 ft 13 kts 133°
2026-05-05 05:33 51.89078 0.25451 337 ft 10 kts 132°
2026-05-05 05:34 51.89054 0.25492 335 ft 3 kts 133°
2026-05-05 05:34 51.89043 0.25512 339 ft 1 kts 133°
2026-05-05 05:34 51.89038 0.25522 339 ft 1 kts 133°
2026-05-05 05:34 51.89033 0.25530 339 ft 0 kts 133°
2026-05-05 05:36 51.89032 0.25532 334 ft 1 kts 133°
2026-05-05 05:36 51.89022 0.25561 335 ft 4 kts 105°
2026-05-05 05:36 51.89027 0.25605 340 ft 4 kts 66°
2026-05-05 05:36 51.89043 0.25639 351 ft 4 kts 46°
2026-05-05 05:37 51.89053 0.25646 342 ft 1 kts 350°
2026-05-05 05:37 51.89061 0.25636 342 ft 2 kts 330°
2026-05-05 05:37 51.89072 0.25638 342 ft 2 kts 13°
2026-05-05 05:37 51.89080 0.25645 342 ft 0 kts 30°